When you browse on this site, cookies collect data to enhance your experience and personalize the content and advertising you see.
Visit our Privacy Policy to learn more. By continuing to use the site, you agree to this use of cookies and data.
  • En España
  • Lista de países
  • Para 7 días
  • Temperatura del agua
  • El tiempo en el mapa
  • Informadores
  • user-avatar
    Iniciar sesión

    Tiempo cada hora Vitoria

    Hoy, 5 Junio, Viernes

    Tiempo Temperatura Precipitaciones Viento Presión Humedad
    00:00 +11°C° 0 mm 1 mps 713 mmHg 96%
    01:00 +11°C° 0.1 mm 1 mps 713 mmHg 96%
    02:00 +10°C° 0.1 mm 1 mps 712 mmHg 96%
    03:00 +10°C° 0.1 mm 1 mps 712 mmHg 96%
    04:00 +10°C° 0 mm 1 mps 713 mmHg 95%
    05:00 +11°C° 0 mm 1 mps 713 mmHg 94%
    06:00 +11°C° 0 mm 1 mps 713 mmHg 93%
    07:00 +13°C° 0 mm 1 mps 713 mmHg 83%
    08:00 +14°C° 0 mm 2 mps 713 mmHg 74%
    09:00 +16°C° 0 mm 2 mps 714 mmHg 65%
    10:00 +17°C° 0 mm 2 mps 714 mmHg 62%
    11:00 +19°C° 0 mm 3 mps 714 mmHg 59%
    12:00 +20°C° 0 mm 3 mps 714 mmHg 56%
    13:00 +20°C° 0 mm 3 mps 714 mmHg 56%
    14:00 +21°C° 0 mm 3 mps 714 mmHg 57%
    15:00 +21°C° 0 mm 3 mps 713 mmHg 57%
    16:00 +20°C° 0 mm 3 mps 713 mmHg 63%
    17:00 +19°C° 0 mm 2 mps 713 mmHg 68%
    18:00 +18°C° 0 mm 2 mps 713 mmHg 73%
    19:00 +17°C° 0 mm 2 mps 713 mmHg 80%
    20:00 +15°C° 0 mm 1 mps 713 mmHg 87%
    21:00 +13°C° 0 mm 1 mps 713 mmHg 94%
    22:00 +13°C° 0 mm 1 mps 713 mmHg 94%
    23:00 +13°C° 0 mm 1 mps 713 mmHg 94%

    Mañana, 6 Junio, Sábado

    Tiempo Temperatura Precipitaciones Viento Presión Humedad
    00:00 +12°C° 0 mm 0 mps 713 mmHg 94%
    01:00 +12°C° 0 mm 0 mps 713 mmHg 94%
    02:00 +12°C° 0 mm 0 mps 713 mmHg 94%
    03:00 +12°C° 0 mm 0 mps 712 mmHg 94%
    04:00 +12°C° 0 mm 0 mps 712 mmHg 92%
    05:00 +13°C° 0 mm 0 mps 712 mmHg 91%
    06:00 +13°C° 0 mm 0 mps 712 mmHg 89%
    07:00 +15°C° 0 mm 0 mps 712 mmHg 83%
    08:00 +18°C° 0 mm 1 mps 712 mmHg 78%
    09:00 +19°C° 0 mm 1 mps 712 mmHg 72%
    10:00 +19°C° 0 mm 1 mps 712 mmHg 71%
    11:00 +20°C° 0 mm 1 mps 712 mmHg 69%
    12:00 +20°C° 0 mm 1 mps 712 mmHg 68%
    13:00 +19°C° 0 mm 2 mps 711 mmHg 69%
    14:00 +19°C° 0 mm 2 mps 711 mmHg 70%
    15:00 +19°C° 0 mm 3 mps 711 mmHg 71%
    16:00 +18°C° 0.2 mm 3 mps 711 mmHg 77%
    17:00 +17°C° 0.2 mm 3 mps 710 mmHg 83%
    18:00 +16°C° 0.2 mm 2 mps 710 mmHg 89%
    19:00 +15°C° 0.8 mm 2 mps 711 mmHg 92%
    20:00 +14°C° 0.8 mm 1 mps 711 mmHg 95%
    21:00 +14°C° 0.8 mm 1 mps 712 mmHg 98%
    22:00 +14°C° 0.4 mm 1 mps 712 mmHg 98%
    23:00 +14°C° 0.4 mm 1 mps 711 mmHg 97%

    Pasado mañana, 7 Junio, Domingo

    Tiempo Temperatura Precipitaciones Viento Presión Humedad
    00:00 +13°C° 0.4 mm 1 mps 711 mmHg 97%
    01:00 +13°C° 0.2 mm 1 mps 711 mmHg 97%
    02:00 +13°C° 0.2 mm 2 mps 711 mmHg 97%
    03:00 +13°C° 0.2 mm 2 mps 711 mmHg 97%
    04:00 +12°C° 0.2 mm 2 mps 711 mmHg 97%
    05:00 +12°C° 0.2 mm 2 mps 711 mmHg 97%
    06:00 +10°C° 0.2 mm 2 mps 711 mmHg 97%
    07:00 +10°C° 0.3 mm 2 mps 712 mmHg 96%
    08:00 +10°C° 0.3 mm 2 mps 712 mmHg 95%
    09:00 +10°C° 0.3 mm 2 mps 712 mmHg 94%
    10:00 +10°C° 0.5 mm 2 mps 712 mmHg 94%
    11:00 +10°C° 0.5 mm 2 mps 713 mmHg 94%
    12:00 +10°C° 0.5 mm 2 mps 713 mmHg 93%
    13:00 +10°C° 0.1 mm 2 mps 713 mmHg 92%
    14:00 +10°C° 0.1 mm 2 mps 713 mmHg 90%
    15:00 +12°C° 0.1 mm 2 mps 713 mmHg 89%
    16:00 +11°C° 0.1 mm 3 mps 713 mmHg 85%
    17:00 +11°C° 0.1 mm 3 mps 713 mmHg 81%
    18:00 +11°C° 0.1 mm 3 mps 714 mmHg 78%
    19:00 +10°C° 0 mm 2 mps 714 mmHg 83%
    20:00 +9°C° 0 mm 2 mps 714 mmHg 87%
    21:00 +8°C° 0 mm 1 mps 715 mmHg 92%
    22:00 +8°C° 0 mm 1 mps 715 mmHg 93%
    23:00 +8°C° 0 mm 1 mps 715 mmHg 93%

    8 Junio, Lunes

    Tiempo Temperatura Precipitaciones Viento Presión Humedad
    00:00 +8°C° 0 mm 1 mps 715 mmHg 94%
    01:00 +8°C° 0 mm 1 mps 715 mmHg 93%
    02:00 +8°C° 0 mm 1 mps 715 mmHg 93%
    03:00 +8°C° 0 mm 1 mps 714 mmHg 92%
    04:00 +9°C° 0 mm 1 mps 714 mmHg 91%
    05:00 +9°C° 0 mm 1 mps 714 mmHg 91%
    06:00 +9°C° 0 mm 1 mps 715 mmHg 90%
    07:00 +10°C° 0 mm 2 mps 715 mmHg 83%
    08:00 +13°C° 0 mm 2 mps 715 mmHg 76%
    09:00 +13°C° 0 mm 3 mps 715 mmHg 69%
    10:00 +14°C° 0.1 mm 3 mps 715 mmHg 69%
    11:00 +14°C° 0.1 mm 3 mps 715 mmHg 70%
    12:00 +14°C° 0.1 mm 4 mps 715 mmHg 70%
    13:00 +15°C° 0.4 mm 4 mps 715 mmHg 72%
    14:00 +15°C° 0.4 mm 5 mps 715 mmHg 73%
    15:00 +15°C° 0.4 mm 5 mps 715 mmHg 75%
    16:00 +14°C° 0.2 mm 5 mps 715 mmHg 76%
    17:00 +13°C° 0.2 mm 5 mps 715 mmHg 76%
    18:00 +13°C° 0.2 mm 5 mps 716 mmHg 77%
    19:00 +12°C° 0.1 mm 3 mps 716 mmHg 83%
    20:00 +10°C° 0.1 mm 2 mps 716 mmHg 88%
    21:00 +10°C° 0.1 mm 1 mps 717 mmHg 94%
    22:00 +10°C° 0.1 mm 1 mps 717 mmHg 94%
    23:00 +10°C° 0.1 mm 1 mps 717 mmHg 94%

    9 Junio, Martes

    Tiempo Temperatura Precipitaciones Viento Presión Humedad
    00:00 +10°C° 0.1 mm 1 mps 717 mmHg 94%
    01:00 +9°C° 0 mm 1 mps 717 mmHg 95%
    02:00 +9°C° 0 mm 1 mps 716 mmHg 95%
    03:00 +9°C° 0 mm 1 mps 716 mmHg 95%
    04:00 +9°C° 0 mm 1 mps 716 mmHg 94%
    05:00 +10°C° 0 mm 1 mps 717 mmHg 93%
    06:00 +10°C° 0 mm 1 mps 717 mmHg 92%
    07:00 +12°C° 0.1 mm 2 mps 717 mmHg 88%
    08:00 +13°C° 0.1 mm 2 mps 717 mmHg 85%
    09:00 +14°C° 0.1 mm 2 mps 717 mmHg 81%
    10:00 +14°C° 0.3 mm 2 mps 717 mmHg 80%
    11:00 +14°C° 0.3 mm 3 mps 717 mmHg 78%
    12:00 +14°C° 0.3 mm 3 mps 718 mmHg 77%
    13:00 +16°C° 0.3 mm 3 mps 717 mmHg 75%
    14:00 +16°C° 0.3 mm 3 mps 717 mmHg 73%
    15:00 +15°C° 0.3 mm 4 mps 717 mmHg 71%
    16:00 +15°C° 0.1 mm 4 mps 717 mmHg 73%
    17:00 +14°C° 0.1 mm 3 mps 717 mmHg 74%
    18:00 +14°C° 0.1 mm 3 mps 718 mmHg 76%
    19:00 +12°C° 0.1 mm 3 mps 718 mmHg 82%
    20:00 +12°C° 0.1 mm 2 mps 718 mmHg 88%
    21:00 +10°C° 0.1 mm 1 mps 718 mmHg 94%
    22:00 +10°C° 0.1 mm 1 mps 718 mmHg 95%
    23:00 +10°C° 0.1 mm 1 mps 718 mmHg 95%

    10 Junio, Miércoles

    Tiempo Temperatura Precipitaciones Viento Presión Humedad
    00:00 +10°C° 0.1 mm 1 mps 718 mmHg 96%
    01:00 +10°C° 0.1 mm 1 mps 718 mmHg 96%
    02:00 +10°C° 0.1 mm 1 mps 717 mmHg 96%
    03:00 +9°C° 0.1 mm 1 mps 717 mmHg 96%
    04:00 +10°C° 0 mm 1 mps 717 mmHg 95%
    05:00 +10°C° 0 mm 1 mps 717 mmHg 95%
    06:00 +11°C° 0 mm 1 mps 717 mmHg 94%
    07:00 +12°C° 0.2 mm 2 mps 717 mmHg 90%
    08:00 +13°C° 0.2 mm 2 mps 717 mmHg 86%
    09:00 +14°C° 0.2 mm 2 mps 717 mmHg 82%
    10:00 +14°C° 0.4 mm 3 mps 717 mmHg 79%
    11:00 +16°C° 0.4 mm 3 mps 717 mmHg 76%
    12:00 +17°C° 0.4 mm 4 mps 717 mmHg 74%
    13:00 +17°C° 0.3 mm 4 mps 717 mmHg 71%
    14:00 +17°C° 0.3 mm 4 mps 716 mmHg 69%
    15:00 +17°C° 0.3 mm 4 mps 716 mmHg 67%
    16:00 +17°C° 0.1 mm 4 mps 716 mmHg 69%
    17:00 +15°C° 0.1 mm 4 mps 716 mmHg 72%
    18:00 +14°C° 0.1 mm 3 mps 716 mmHg 74%
    19:00 +14°C° 0 mm 2 mps 716 mmHg 81%
    20:00 +12°C° 0 mm 2 mps 716 mmHg 87%
    21:00 +10°C° 0 mm 1 mps 716 mmHg 94%
    22:00 +10°C° 0 mm 1 mps 716 mmHg 94%
    23:00 +10°C° 0 mm 1 mps 715 mmHg 95%
    Mostrar más